Flight Track Log - Related Links

Times and Time Zones

All times are in EDT time to prevent confusion due to time zone crossing. See the UAL1020 flight status page for this flight to view local times or setup timezone preferences in your user account.

Time Position Orientation Groundspeed Altitude Reporting Facility
EDT Latitude Longitude Course Direction KTS MPH feet Rate Location/Type
Sun 05:14:45 PM 29.9779 -95.3517 139° Southeast 130 150  Level FlightAware ADS-B
Sun 05:15:01 PM 29.9674 -95.3454 153° Southeast 165 190 200 1,636 Climbing FlightAware ADS-B
Sun 05:15:18 PM 29.9566 -95.3373 147° Southeast 165 190 900 2,500 Climbing FlightAware ADS-B
Sun 05:15:25 PM 29.9537 -95.3322 123° Southeast 163 188 1,200 2,500 Climbing FlightAware ADS-B
Sun 05:15:30 PM 29.9522 -95.3280 112° Southeast 165 190 1,400 1,714 Climbing FlightAware ADS-B
Sun 05:15:39 PM 29.9498 -95.3199 109° East 181 208 1,600 2,000 Climbing FlightAware ADS-B
Sun 05:15:57 PM 29.9454 -95.3028 107° East 181 208 2,300 2,786 Climbing FlightAware ADS-B
Sun 05:16:07 PM 29.9428 -95.2917 105° East 201 231 2,900 3,000 Climbing FlightAware ADS-B
Sun 05:16:23 PM 29.9388 -95.2753 106° East 215 247 3,600 2,000 Climbing FlightAware ADS-B
Sun 05:16:34 PM 29.9358 -95.2632 106° East 228 262 3,800 692 Climbing FlightAware ADS-B
Sun 05:16:49 PM 29.9312 -95.2447 106° East 239 275 3,900 182 Climbing FlightAware ADS-B
Sun 05:17:07 PM 29.9257 -95.2224 106° East 246 283 3,900  Level FlightAware ADS-B
Sun 05:17:54 PM 29.9102 -95.1624 107° East 246 283 3,900  Level FlightAware ADS-B
Sun 05:18:10 PM 29.9053 -95.1430 106° East 245 282 3,900 871 Level FlightAware ADS-B
Sun 05:18:56 PM 29.8905 -95.0842 106° East 246 283 4,800 1,672 Climbing FlightAware ADS-B
Sun 05:19:11 PM 29.8855 -95.0651 107° East 252 290 5,600 3,333 Climbing FlightAware ADS-B
Sun 05:19:41 PM 29.8748 -95.0254 110° East 265 305 7,300 3,353 Climbing FlightAware ADS-B
Sun 05:19:45 PM 29.8731 -95.0215 117° Southeast 267 307 7,500 3,000 Climbing FlightAware ADS-B
Sun 05:19:55 PM 29.8656 -95.0098 132° Southeast 274 315 8,000 3,375 Climbing FlightAware ADS-B
Sun 05:20:01 PM 29.8596 -95.0038 139° Southeast 278 320 8,400 3,692 Climbing FlightAware ADS-B
Sun 05:20:08 PM 29.8512 -94.9983 154° Southeast 282 325 8,800 3,176 Climbing FlightAware ADS-B
Sun 05:20:18 PM 29.8385 -94.9939 168° South 288 331 9,300 3,231 Climbing FlightAware ADS-B
Sun 05:20:21 PM 29.8344 -94.9931 170° South 289 333 9,500 2,362 Climbing FlightAware ADS-B
Sun 05:21:52 PM 29.7035 -94.9642 169° South 355 409 13,000 2,441 Climbing FlightAware ADS-B
Sun 05:22:19 PM 29.6605 -94.9526 167° South 361 415 14,300 2,737 Climbing FlightAware ADS-B
Sun 05:22:49 PM 29.6109 -94.9383 166° South 370 426 15,600 2,207 Climbing FlightAware ADS-B
Sun 05:23:46 PM 29.5129 -94.9065 163° South 398 458 17,500 2,106 Climbing FlightAware ADS-B
Sun 05:24:23 PM 29.4483 -94.8810 161° South 405 466 18,900 2,298 Climbing FlightAware ADS-B
Sun 05:24:33 PM 29.4304 -94.8716 155° Southeast 405 466 19,300 2,195 Climbing FlightAware ADS-B
Sun 05:25:04 PM 29.3794 -94.8399 152° Southeast 412 474 20,400 1,869 Climbing FlightAware ADS-B
Sun 05:25:34 PM 29.3279 -94.8084 152° Southeast 423 487 21,200 1,770 Climbing FlightAware ADS-B
Sun 05:26:05 PM 29.2733 -94.7759 153° Southeast 432 497 22,200 1,970 Climbing FlightAware ADS-B
Sun 05:26:41 PM 29.2092 -94.7381 153° Southeast 437 503 23,400 1,727 Climbing FlightAware ADS-B
Sun 05:27:11 PM 29.1533 -94.7052 153° Southeast 447 514 24,100 1,475 Climbing FlightAware ADS-B
Sun 05:27:42 PM 29.0972 -94.6720 153° Southeast 455 524 24,900 1,645 Climbing FlightAware ADS-B
Sun 05:28:13 PM 29.0386 -94.6373 153° Southeast 457 526 25,800 1,770 Climbing FlightAware ADS-B
Sun 05:28:43 PM 28.9810 -94.6033 153° Southeast 458 527 26,700 1,574 Climbing FlightAware ADS-B
Sun 05:29:14 PM 28.9237 -94.5696 153° Southeast 463 533 27,400 1,377 Climbing FlightAware ADS-B
Sun 05:29:44 PM 28.8657 -94.5355 153° Southeast 465 535 28,100 1,300 Climbing FlightAware ADS-B
Sun 05:30:14 PM 28.8069 -94.5009 153° Southeast 468 539 28,700 1,169 Climbing FlightAware ADS-B
Sun 05:31:01 PM 28.7154 -94.4497 154° Southeast 470 541 29,600 1,138 Climbing FlightAware ADS-B
Sun 05:31:12 PM 28.6939 -94.4443 168° South 470 541 29,800 1,000 Climbing FlightAware ADS-B
Sun 05:31:19 PM 28.6784 -94.4430 176° South 472 543 29,900 1,200 Climbing FlightAware ADS-B
Sun 05:31:27 PM 28.6601 -94.4428 179° South 471 542 30,100 1,105 Climbing FlightAware ADS-B
Sun 05:31:57 PM 28.5942 -94.4431 180° South 474 545 30,600 1,082 Climbing FlightAware ADS-B
Sun 05:32:28 PM 28.5269 -94.4435 180° South 475 547 31,200 1,279 Climbing FlightAware ADS-B
Sun 05:32:58 PM 28.4601 -94.4435 180° South 473 544 31,900 1,574 Climbing FlightAware ADS-B
Sun 05:33:29 PM 28.3937 -94.4433 180° South 466 536 32,800 1,770 Climbing FlightAware ADS-B
Sun 05:33:59 PM 28.3282 -94.4437 180° South 458 527 33,700 1,600 Climbing FlightAware ADS-B
Sun 05:34:29 PM 28.2647 -94.4439 180° South 453 521 34,400 1,452 Climbing FlightAware ADS-B
Sun 05:35:01 PM 28.1982 -94.4447 181° South 449 517 35,200 1,313 Climbing FlightAware ADS-B
Sun 05:35:33 PM 28.1325 -94.4457 181° South 446 513 35,800 1,161 Climbing FlightAware ADS-B
Sun 05:36:03 PM 28.0697 -94.4464 181° South 443 510 36,400 1,180 Climbing FlightAware ADS-B
Sun 05:36:34 PM 28.0069 -94.4470 180° South 440 506 37,000 507 Climbing FlightAware ADS-B
Sun 05:37:14 PM 27.9262 -94.4480 181° South 442 509 37,000  Level FlightAware ADS-B
Sun 05:37:44 PM 27.8640 -94.4489 181° South 443 510 37,000  Level FlightAware ADS-B
Sun 05:38:15 PM 27.7998 -94.4476 179° South 443 510 37,000  Level FlightAware ADS-B
Sun 05:38:46 PM 27.7361 -94.4460 179° South 443 510 37,000  Level FlightAware ADS-B
Sun 05:39:20 PM 27.6665 -94.4443 179° South 444 511 37,000  Level FlightAware ADS-B
Sun 05:40:20 PM 27.5429 -94.4417 179° South 444 511 37,000  Level FlightAware ADS-B
Sun 05:40:32 PM 27.5174 -94.4400 177° South 445 512 37,000  Level FlightAware ADS-B
Sun 05:41:23 PM 27.4149 -94.4255 173° South 445 512 37,000  Level FlightAware ADS-B
Sun 05:42:00 PM 27.3394 -94.4081 168° South 445 512 37,000  Level FlightAware ADS-B
Sun 05:46:26 PM 26.8312 -94.1830 158° South 450 518 37,000  Level FlightAware ADS-B
Sun 05:49:21 PM 26.5337 -93.9451 144° Southeast 37,000  Level FlightAware ADS-B
Sun 05:49:48 PM 26.4911 -93.9059 141° Southeast 452 520 37,000  Level FlightAware ADS-B
Sun 05:56:00 PM 25.8293 -93.5110 150° Southeast  Level FlightAware Approximate
Sun 05:57:00 PM 25.7248 -93.4435 150° Southeast  Level FlightAware Approximate
Sun 05:58:00 PM 25.6202 -93.3761 150° Southeast  Level FlightAware Approximate
Sun 05:59:00 PM 25.5156 -93.3088 150° Southeast  Level FlightAware Approximate
Sun 06:00:00 PM 25.4114 -93.2408 149° Southeast  Level FlightAware Approximate
Sun 06:01:00 PM 25.3079 -93.1717 149° Southeast  Level FlightAware Approximate
Sun 06:02:00 PM 25.2043 -93.1026 149° Southeast  Level FlightAware Approximate
Sun 06:03:00 PM 25.1008 -93.0336 149° Southeast  Level FlightAware Approximate
Sun 06:04:00 PM 24.9972 -92.9648 149° Southeast  Level FlightAware Approximate
Sun 06:05:00 PM 24.8938 -92.8956 149° Southeast  Level FlightAware Approximate
Sun 06:06:00 PM 24.7877 -92.8248 149° Southeast  Level FlightAware Approximate
Sun 06:07:00 PM 24.6816 -92.7541 149° Southeast  Level FlightAware Approximate
Sun 06:08:00 PM 24.5755 -92.6835 149° Southeast  Level FlightAware Approximate
Sun 06:09:00 PM 24.4687 -92.6141 151° Southeast  Level FlightAware Approximate
Sun 06:10:00 PM 24.3605 -92.5477 151° Southeast  Level FlightAware Approximate
Sun 06:11:00 PM 24.2522 -92.4814 151° Southeast  Level FlightAware Approximate
Sun 06:12:00 PM 24.1438 -92.4152 151° Southeast  Level FlightAware Approximate
Sun 06:13:00 PM 24.0355 -92.3491 151° Southeast  Level FlightAware Approximate
Sun 06:14:00 PM 23.9271 -92.2831 151° Southeast  Level FlightAware Approximate
Sun 06:15:00 PM 23.8142 -92.2273 157° South  Level FlightAware Approximate
Sun 06:16:00 PM 23.6999 -92.1749 157° South  Level FlightAware Approximate
Sun 06:17:00 PM 23.5855 -92.1226 157° South  Level FlightAware Approximate
Sun 06:18:00 PM 23.4711 -92.0703 157° South  Level FlightAware Approximate
Sun 06:19:00 PM 23.3567 -92.0182 157° South  Level FlightAware Approximate
Sun 06:20:00 PM 23.2412 -91.9656 157° South  Level FlightAware Approximate
Sun 06:21:00 PM 23.1300 -91.9084 113° Southeast  Level FlightAware Approximate
Sun 06:21:06 PM 23.0440 -91.6880 113° Southeast 484 557 37,000  Level FlightAware ADS-B
Sun 06:21:59 PM 23.0210 -91.6300 113° Southeast 485 558 37,000  Level FlightAware ADS-B
Sun 06:22:00 PM 23.0802 -91.7836 113° Southeast  Level FlightAware Approximate
Sun 06:22:35 PM 22.9940 -91.5620 113° Southeast 485 558 37,000  Level FlightAware ADS-B
Sun 06:23:10 PM 22.9340 -91.4120 113° Southeast 485 558 37,000  Level FlightAware ADS-B
Sun 06:23:56 PM 22.8990 -91.3240 113° Southeast 485 558 37,000  Level FlightAware ADS-B
Sun 06:24:34 PM 22.8580 -91.2240 114° Southeast 485 558 37,000  Level FlightAware ADS-B
Sun 06:25:10 PM 22.8260 -91.1440 113° Southeast 484 557 37,000  Level FlightAware ADS-B
Sun 06:25:44 PM 22.7960 -91.0690 113° Southeast 482 555 37,000  Level FlightAware ADS-B
Sun 06:26:20 PM 22.7630 -90.9880 114° Southeast 481 554 37,000  Level FlightAware ADS-B
Sun 06:26:53 PM 22.7350 -90.9170 113° Southeast 480 552 37,000  Level FlightAware ADS-B
Sun 06:27:28 PM 22.7030 -90.8380 114° Southeast 479 551 37,000  Level FlightAware ADS-B
Sun 06:28:04 PM 22.6720 -90.7600 113° Southeast 478 550 37,000  Level FlightAware ADS-B
Sun 06:28:40 PM 22.6400 -90.6820 114° Southeast 477 549 37,000  Level FlightAware ADS-B
Sun 06:29:16 PM 22.6070 -90.6020 114° Southeast 476 548 37,000  Level FlightAware ADS-B
Sun 06:29:49 PM 22.5790 -90.5320 113° Southeast 475 547 37,000  Level FlightAware ADS-B
Sun 06:30:23 PM 22.5480 -90.4570 114° Southeast 473 544 37,000  Level FlightAware ADS-B
Sun 06:30:59 PM 22.5160 -90.3790 114° Southeast 471 542 37,000  Level FlightAware ADS-B
Sun 06:31:35 PM 22.4850 -90.3030 114° Southeast 471 542 37,000  Level FlightAware ADS-B
Sun 06:32:11 PM 22.4530 -90.2260 114° Southeast 469 540 37,000  Level FlightAware ADS-B
Sun 06:32:48 PM 22.4210 -90.1460 113° Southeast 467 537 37,000  Level FlightAware ADS-B
Sun 06:33:19 PM 22.3940 -90.0800 114° Southeast 466 536 37,000  Level FlightAware ADS-B
Sun 06:33:55 PM 22.3620 -90.0030 114° Southeast 465 535 37,000  Level FlightAware ADS-B
Sun 06:34:27 PM 22.3340 -89.9360 114° Southeast 464 534 37,000  Level FlightAware ADS-B
Sun 06:35:07 PM 22.2990 -89.8500 114° Southeast 463 533 37,000  Level FlightAware ADS-B
Sun 06:35:43 PM 22.2680 -89.7750 114° Southeast 463 533 37,000  Level FlightAware ADS-B
Sun 06:36:15 PM 22.2400 -89.7070 114° Southeast 462 532 37,000  Level FlightAware ADS-B
Sun 06:36:51 PM 22.2080 -89.6320 115° Southeast 463 533 37,000  Level FlightAware ADS-B
Sun 06:37:27 PM 22.1770 -89.5560 114° Southeast 463 533 37,000  Level FlightAware ADS-B
Sun 06:37:57 PM 22.1500 -89.4910 114° Southeast 464 534 37,000  Level FlightAware ADS-B
Sun 06:38:37 PM 22.1150 -89.4080 114° Southeast 465 535 37,000  Level FlightAware ADS-B
Sun 06:39:09 PM 22.0870 -89.3390 114° Southeast 465 535 37,000  Level FlightAware ADS-B
Sun 06:39:43 PM 22.0570 -89.2680 114° Southeast 466 536 37,000  Level FlightAware ADS-B
Sun 06:40:21 PM 22.0230 -89.1870 114° Southeast 465 535 37,000  Level FlightAware ADS-B
Sun 06:40:55 PM 21.9930 -89.1160 114° Southeast 465 535 37,000  Level FlightAware ADS-B
Sun 06:41:29 PM 21.9640 -89.0450 114° Southeast 465 535 37,000  Level FlightAware ADS-B
Sun 06:42:15 PM 21.9230 -88.9480 114° Southeast 466 536 37,000 -385 Level FlightAware ADS-B
Sun 06:42:47 PM 21.8940 -88.8800 115° Southeast 465 535 36,500 -971 Descending FlightAware ADS-B
Sun 06:43:23 PM 21.8620 -88.8030 114° Southeast 466 536 35,900 -1,917 Descending FlightAware ADS-B
Sun 06:43:59 PM 21.8300 -88.7280 115° Southeast 466 536 34,200 -3,000 Descending FlightAware ADS-B
Sun 06:44:29 PM 21.8030 -88.6660 115° Southeast 470 541 32,600 -2,438 Descending FlightAware ADS-B
Sun 06:45:03 PM 21.7800 -88.6100 114° Southeast 470 541 31,600 -2,000 Descending FlightAware ADS-B
Sun 06:45:38 PM 21.7510 -88.5430 115° Southeast 460 529 30,300 -2,080 Descending FlightAware ADS-B
Sun 06:46:18 PM 21.7220 -88.4720 114° Southeast 460 529 29,000 -2,696 Descending FlightAware ADS-B
Sun 06:46:47 PM 21.6880 -88.3810 112° Southeast 437 503 27,200 -3,000 Descending FlightAware ADS-B
Sun 06:47:28 PM 21.6570 -88.2990 112° Southeast 427 491 25,500 -2,416 Descending FlightAware ADS-B
Sun 06:48:04 PM 21.6310 -88.2280 111° Southeast 418 481 24,100 -2,261 Descending FlightAware ADS-B
Sun 06:48:37 PM 21.6070 -88.1660 113° Southeast 404 465 22,900 -2,087 Descending FlightAware ADS-B
Sun 06:49:13 PM 21.5840 -88.1020 111° Southeast 384 442 21,700 -2,029 Descending FlightAware ADS-B
Sun 06:49:45 PM 21.5630 -88.0450 112° Southeast 379 436 20,600 -2,083 Descending FlightAware ADS-B
Sun 06:50:25 PM 21.5370 -87.9760 112° Southeast 371 427 19,200 -2,167 Descending FlightAware ADS-B
Sun 06:50:57 PM 21.5170 -87.9250 113° Southeast 367 422 18,000 -2,206 Descending FlightAware ADS-B
Sun 06:51:33 PM 21.4940 -87.8640 112° Southeast 350 403 16,700 -1,737 Descending FlightAware ADS-B
Sun 06:52:13 PM 21.4780 -87.8210 112° Southeast 368 423 15,800 -1,658 Descending FlightAware ADS-B
Sun 06:52:49 PM 21.4550 -87.7600 112° Southeast 332 382 14,600 -1,971 Descending FlightAware ADS-B
Sun 06:53:23 PM 21.4360 -87.7070 111° Southeast 330 380 13,500 -1,200 Descending FlightAware ADS-B
Sun 06:54:09 PM 21.4110 -87.6420 112° Southeast 330 380 13,000 -1,040 Descending FlightAware ADS-B
Sun 06:54:38 PM 21.3960 -87.6030 112° Southeast 330 380 12,200 -1,569 Descending FlightAware ADS-B
Sun 06:55:14 PM 21.3780 -87.5550 112° Southeast 288 331 11,300 -1,543 Descending FlightAware ADS-B
Sun 06:55:48 PM 21.3600 -87.5090 113° Southeast 288 331 10,400 -1,500 Descending FlightAware ADS-B
Sun 06:56:06 PM 21.3520 -87.4890 113° Southeast 288 331 10,000 -1,535 Descending FlightAware ADS-B
Sun 06:56:31 PM 21.3400 -87.4570 112° Southeast 274 315 9,300 -1,500 Descending FlightAware ADS-B
Sun 06:56:50 PM 21.3320 -87.4340 110° East 269 310 8,900 -1,364 Descending FlightAware ADS-B
Sun 06:57:15 PM 21.3200 -87.4040 113° Southeast 266 306 8,300 -1,500 Descending FlightAware ADS-B
Sun 06:57:38 PM 21.3090 -87.3730 111° Southeast 266 306 7,700 -1,571 Descending FlightAware ADS-B
Sun 06:57:57 PM 21.3010 -87.3520 112° Southeast 266 306 7,200 -1,600 Descending FlightAware ADS-B
Sun 06:58:08 PM 21.2950 -87.3380 115° Southeast 266 306 6,900 -1,371 Descending FlightAware ADS-B
Sun 06:58:32 PM 21.2840 -87.3090 112° Southeast 266 306 6,400 -1,429 Descending FlightAware ADS-B
Sun 06:58:50 PM 21.2760 -87.2870 111° Southeast 266 306 5,900 -1,571 Descending FlightAware ADS-B
Sun 06:59:14 PM 21.2640 -87.2580 114° Southeast 262 302 5,300 -1,500 Descending FlightAware ADS-B
Sun 06:59:42 PM 21.2510 -87.2230 112° Southeast 262 302 4,600 -1,277 Descending FlightAware ADS-B
Sun 07:00:01 PM 21.2430 -87.2020 112° Southeast 256 295 4,300 -735 Descending FlightAware ADS-B
Sun 07:00:31 PM 21.2300 -87.1680 112° Southeast 239 275 4,000 -500 Descending FlightAware ADS-B
Sun 07:00:49 PM 21.2220 -87.1510 117° Southeast 239 275 3,900 -250 Descending FlightAware ADS-B
Sun 07:00:55 PM 21.2180 -87.1440 122° Southeast 220 253 3,900  Level FlightAware ADS-B
Sun 07:01:19 PM 21.2070 -87.1250 122° Southeast 219 252 3,900 133 Level FlightAware ADS-B
Sun 07:01:40 PM 21.1940 -87.1040 124° Southeast 219 252 4,000  Climbing FlightAware ADS-B
Sun 07:01:54 PM 21.1880 -87.0940 123° Southeast 219 252 3,900 -140 Descending FlightAware ADS-B
Sun 07:02:23 PM 21.1730 -87.0700 124° Southeast 219 252 3,900 -250 Level FlightAware ADS-B
Sun 07:02:42 PM 21.1640 -87.0560 125° Southeast 219 252 3,700 -698 Descending FlightAware ADS-B
Sun 07:03:06 PM 21.1530 -87.0390 125° Southeast 219 252 3,400 -1,000 Descending FlightAware ADS-B
Sun 07:03:18 PM 21.1450 -87.0250 121° Southeast 173 199 3,100 -1,235 Descending FlightAware ADS-B
Sun 07:03:40 PM 21.1340 -87.0080 125° Southeast 167 192 2,700 -750 Descending FlightAware ADS-B
Sun 07:03:58 PM 21.1300 -87.0030 131° Southeast 168 193 2,600 -682 Descending FlightAware ADS-B
Sun 07:04:24 PM 21.1190 -86.9850 123° Southeast 168 193 2,200 -913 Descending FlightAware ADS-B
Sun 07:04:44 PM 21.1110 -86.9710 121° Southeast 162 186 1,900 -909 Descending FlightAware ADS-B
Sun 07:04:57 PM 21.1060 -86.9630 124° Southeast 162 186 1,700 -909 Descending FlightAware ADS-B
Sun 07:05:17 PM 21.0970 -86.9490 125° Southeast 166 191 1,400 -789 Descending FlightAware ADS-B
Sun 07:05:35 PM 21.0900 -86.9380 124° Southeast 166 191 1,200 -769 Descending FlightAware ADS-B
Sun 07:05:56 PM 21.0820 -86.9250 123° Southeast 144 166 900 -766 Descending FlightAware ADS-B
Sun 07:06:22 PM 21.0730 -86.9110 125° Southeast 144 166 600 -667 Descending FlightAware ADS-B
Sun 07:06:41 PM 21.0670 -86.9010 123° Southeast 144 166 400 -612 Descending FlightAware ADS-B
Sun 07:07:11 PM 21.0570 -86.8840 122° Southeast 144 166 100 -327 Descending FlightAware ADS-B
Sun 07:07:36 PM 21.0490 -86.8720 126° Southeast 144 166 100  Level FlightAware ADS-B

Login

Don't have an account? Register now (free) for customized features, flight alerts, and more!